Regional Weather Roundup
Issued by NWS

Home | Current Version | Previous Version | Text Only | Print | Product List | Glossary Off
Versions: 1 2 3 4 5 6 7 8 9 10 11 12 13 14 15 16 17 18 19 20 21 22 23 24 25 26 27 28 29 30 31 32 33 34 35 36 37 38 39 40 41 42 43 44 45 46 47 48 49 50

094
ASUS45 KCYS 241210
RWRWY

WYOMING REGIONAL WEATHER ROUNDUP
NATIONAL WEATHER SERVICE CHEYENNE WY
500 AM MST TUE JAN 24 2017

NOTE:  "FAIR" INDICATES FEW OR NO CLOUDS BELOW 12,000 FEET
WITH NO SIGNIFICANT WEATHER AND/OR OBSTRUCTIONS TO VISIBILITY.

WYZ001-241300-
YELLOWSTONE NATIONAL PARK

CITY           SKY/WX    TMP DP  RH WIND       PRES   REMARKS
LK YELLOWSTONE   N/A     15  11  83 CALM      29.56R
6HR MIN TEMP:  15; 6HR MAX TEMP:  18; 6HR PCP:  0.01;

W YELLOWSTONE  NOT AVBL

$$
WYZ002>013-054>058-071-098>099-241300-
NORTHERN WYOMING

CITY           SKY/WX    TMP DP  RH WIND       PRES   REMARKS
JACKSON        CLOUDY    19  18  93 CALM      29.56R
CODY           LGT SNOW  19  15  84 N13       29.69R FOG     WCI   6
GREYBULL         N/A     21  17  84 E5        29.66R WCI  15
6HR MIN TEMP:  20; 6HR MAX TEMP:  22; 6HR PCP:  0.03;

WORLAND        LGT SNOW  21  20  96 CALM      29.67R VSB 1
6HR MIN TEMP:  21; 6HR MAX TEMP:  22; 6HR PCP:  0.12;

SHERIDAN       LGT SNOW  20  17  88 W6        29.77R FOG     WCI  12
6HR MIN TEMP:  19; 6HR MAX TEMP:  21; 6HR PCP:  0.07;

BUFFALO        LGT SNOW  18  13  80 N26G35    29.67R VSB 3/4 WCI  -1
6HR MIN TEMP:  18; 6HR MAX TEMP:  19; 6HR PCP:  0.01;

GILLETTE       LGT SNOW  17  15  92 N9        29.69R VSB 1   WCI   6
6HR MIN TEMP:  15; 6HR MAX TEMP:  17; 6HR PCP:  0.10;

HULETT         CLOUDY    16  12  86 MISG      29.71S FOG
NEWCASTLE      LGT SNOW  19  18  93 NW6       29.64S WCI  11

$$
WYZ014>020-022>026-101>103-241300-
CENTRAL WYOMING

CITY           SKY/WX    TMP DP  RH WIND       PRES   REMARKS
BIG PINEY      LGT SNOW  19  16  88 CALM      29.53R FOG
6HR MIN TEMP:  19; 6HR MAX TEMP:  22; 6HR PCP:  0.10;

PINEDALE       LGT SNOW  19  18  93 W14       29.53R WCI   6
DUBOIS         NOT AVBL
LANDER         LGT SNOW  19  17  92 NW6       29.60R VSB 1   WCI  11
6HR MIN TEMP:  19; 6HR MAX TEMP:  23; 6HR PCP:  0.31;

RIVERTON       LGT SNOW  18  16  92 NE9       29.60R FOG     WCI   7
6HR MIN TEMP:  18; 6HR MAX TEMP:  21; 6HR PCP:  0.12;

CASPER         CLOUDY    15  11  83 NE14      29.61R WCI   0
6HR MIN TEMP:  15; 6HR MAX TEMP:  21; 6HR PCP:  0.08;

DOUGLAS        MOCLDY    15  12  88 N8        29.62R WCI   4
6HR MIN TEMP:  15; 6HR MAX TEMP:  25; 6HR PCP: TRACE;


$$
WYZ021-027>030-104>119-241300-
SOUTHERN WYOMING

CITY           SKY/WX    TMP DP  RH WIND       PRES   REMARKS
EVANSTON       CLOUDY    17  13  84 SW16      29.57R WCI   2
6HR MIN TEMP:  15; 6HR MAX TEMP:  19; 6HR PCP: TRACE;

ROCK SPRINGS   CLOUDY    20  17  88 W21       29.53R WCI   4
6HR MIN TEMP:  20; 6HR MAX TEMP:  23; 6HR PCP: TRACE;

RAWLINS        CLOUDY    18  13  80 CALM      29.50R
6HR MIN TEMP:  18; 6HR MAX TEMP:  27; 6HR PCP: TRACE;

LARAMIE        FAIR       9   6  88 VRB5      29.46F WCI   1
6HR MIN TEMP:   7; 6HR MAX TEMP:  24;

CHEYENNE       CLOUDY    25  24  96 N7        29.50S WCI  17
6HR MIN TEMP:  25; 6HR MAX TEMP:  31; 6HR PCP: TRACE;

TORRINGTON     LGT SNOW  22  19  89 N9        29.60R VSB 1   WCI  12
6HR MIN TEMP:  22; 6HR MAX TEMP:  29; 6HR PCP: TRACE;


$$




USA.gov is the U.S. government's official web portal to all federal, state and local government web resources and services.